When you browse on this site, cookies collect data to enhance your experience and personalize the content and advertising you see.
Visit our Privacy Policy to learn more. By continuing to use the site, you agree to this use of cookies and data.
  • In Hungary
  • List of Countries
  • For 7 days
  • Water Temperature
  • Satellite Maps
  • Weather Map
  • News
  • Weather Widgets
  • user-avatar
    Login

    Hourly Weather Pauliny

    Today, 23 May, Thursday

    Time Temperature Precipitation Wind Pressure Humidity
    00:00 +13°C° 0.1 mm 4 mps 750 mmHg 95%
    01:00 +13°C° 0 mm 4 mps 750 mmHg 94%
    02:00 +13°C° 0 mm 4 mps 750 mmHg 94%
    03:00 +13°C° 0 mm 4 mps 750 mmHg 93%
    04:00 +13°C° 0 mm 4 mps 751 mmHg 93%
    05:00 +13°C° 0 mm 4 mps 751 mmHg 91%
    06:00 +13°C° 0 mm 4 mps 751 mmHg 90%
    07:00 +13°C° 0 mm 4 mps 751 mmHg 87%
    08:00 +14°C° 0 mm 4 mps 752 mmHg 83%
    09:00 +15°C° 0 mm 4 mps 752 mmHg 80%
    10:00 +15°C° 0 mm 4 mps 752 mmHg 77%
    11:00 +17°C° 0 mm 4 mps 752 mmHg 75%
    12:00 +16°C° 0 mm 5 mps 752 mmHg 72%
    13:00 +18°C° 0 mm 4 mps 753 mmHg 68%
    14:00 +17°C° 0 mm 5 mps 753 mmHg 66%
    15:00 +17°C° 0 mm 5 mps 753 mmHg 64%
    16:00 +17°C° 0 mm 5 mps 753 mmHg 63%
    17:00 +17°C° 0 mm 4 mps 753 mmHg 65%
    18:00 +15°C° 0 mm 4 mps 753 mmHg 68%
    19:00 +14°C° 0 mm 3 mps 753 mmHg 70%
    20:00 +12°C° 0 mm 3 mps 753 mmHg 72%
    21:00 +11°C° 0 mm 3 mps 753 mmHg 73%
    22:00 +10°C° 0 mm 3 mps 753 mmHg 75%
    23:00 +9°C° 0 mm 2 mps 753 mmHg 78%

    Tomorrow, 24 May, Friday

    Time Temperature Precipitation Wind Pressure Humidity
    00:00 +9°C° 0 mm 2 mps 753 mmHg 82%
    01:00 +8°C° 0 mm 2 mps 754 mmHg 86%
    02:00 +8°C° 0 mm 2 mps 753 mmHg 88%
    03:00 +8°C° 0 mm 2 mps 753 mmHg 90%
    04:00 +8°C° 0 mm 2 mps 753 mmHg 92%
    05:00 +9°C° 0 mm 2 mps 753 mmHg 86%
    06:00 +12°C° 0 mm 2 mps 753 mmHg 80%
    07:00 +14°C° 0 mm 2 mps 753 mmHg 75%
    08:00 +15°C° 0 mm 2 mps 753 mmHg 67%
    09:00 +17°C° 0 mm 2 mps 753 mmHg 60%
    10:00 +19°C° 0 mm 2 mps 753 mmHg 53%
    11:00 +19°C° 0 mm 2 mps 753 mmHg 50%
    12:00 +20°C° 0 mm 2 mps 752 mmHg 47%
    13:00 +21°C° 0 mm 2 mps 752 mmHg 44%
    14:00 +21°C° 0 mm 2 mps 752 mmHg 45%
    15:00 +21°C° 0 mm 2 mps 751 mmHg 47%
    16:00 +21°C° 0 mm 2 mps 751 mmHg 48%
    17:00 +20°C° 0 mm 2 mps 751 mmHg 54%
    18:00 +18°C° 0 mm 2 mps 750 mmHg 61%
    19:00 +17°C° 0 mm 2 mps 750 mmHg 68%
    20:00 +16°C° 0 mm 2 mps 750 mmHg 69%
    21:00 +14°C° 0 mm 3 mps 750 mmHg 70%
    22:00 +13°C° 0 mm 3 mps 750 mmHg 71%
    23:00 +12°C° 0 mm 3 mps 750 mmHg 71%

    Day after tomorrow, 25 May, Saturday

    Time Temperature Precipitation Wind Pressure Humidity
    00:00 +12°C° 0 mm 3 mps 750 mmHg 71%
    01:00 +11°C° 0 mm 3 mps 750 mmHg 71%
    02:00 +11°C° 0 mm 3 mps 749 mmHg 74%
    03:00 +11°C° 0 mm 3 mps 749 mmHg 78%
    04:00 +10°C° 0 mm 3 mps 749 mmHg 81%
    05:00 +11°C° 0 mm 3 mps 749 mmHg 80%
    06:00 +13°C° 0 mm 3 mps 750 mmHg 78%
    07:00 +14°C° 0 mm 4 mps 750 mmHg 76%
    08:00 +15°C° 0 mm 4 mps 750 mmHg 73%
    09:00 +17°C° 0 mm 4 mps 750 mmHg 69%
    10:00 +16°C° 0 mm 5 mps 750 mmHg 65%
    11:00 +17°C° 0 mm 5 mps 750 mmHg 62%
    12:00 +19°C° 0 mm 5 mps 750 mmHg 59%
    13:00 +19°C° 0 mm 5 mps 750 mmHg 55%
    14:00 +19°C° 0 mm 4 mps 750 mmHg 55%
    15:00 +19°C° 0 mm 4 mps 750 mmHg 55%
    16:00 +19°C° 0 mm 4 mps 750 mmHg 55%
    17:00 +18°C° 0 mm 4 mps 750 mmHg 61%
    18:00 +17°C° 0 mm 3 mps 750 mmHg 67%
    19:00 +15°C° 0 mm 2 mps 750 mmHg 73%
    20:00 +14°C° 0 mm 2 mps 750 mmHg 78%
    21:00 +12°C° 0 mm 2 mps 750 mmHg 84%
    22:00 +10°C° 0 mm 2 mps 750 mmHg 89%
    23:00 +9°C° 0 mm 2 mps 750 mmHg 90%

    26 May, Sunday

    Time Temperature Precipitation Wind Pressure Humidity
    00:00 +9°C° 0 mm 2 mps 750 mmHg 91%
    01:00 +8°C° 0 mm 2 mps 750 mmHg 92%
    02:00 +8°C° 0 mm 2 mps 750 mmHg 92%
    03:00 +8°C° 0 mm 2 mps 750 mmHg 91%
    04:00 +8°C° 0 mm 2 mps 749 mmHg 91%
    05:00 +10°C° 0 mm 3 mps 749 mmHg 85%
    06:00 +12°C° 0 mm 3 mps 749 mmHg 80%
    07:00 +13°C° 0 mm 4 mps 749 mmHg 75%
    08:00 +14°C° 0.1 mm 5 mps 749 mmHg 72%
    09:00 +15°C° 0.1 mm 5 mps 749 mmHg 70%
    10:00 +16°C° 0.1 mm 6 mps 749 mmHg 68%
    11:00 +17°C° 0.2 mm 6 mps 748 mmHg 65%
    12:00 +17°C° 0.2 mm 6 mps 748 mmHg 62%
    13:00 +17°C° 0.2 mm 7 mps 748 mmHg 59%
    14:00 +17°C° 0 mm 7 mps 748 mmHg 60%
    15:00 +17°C° 0 mm 6 mps 748 mmHg 61%
    16:00 +17°C° 0 mm 6 mps 748 mmHg 61%
    17:00 +16°C° 0 mm 5 mps 747 mmHg 66%
    18:00 +16°C° 0 mm 3 mps 747 mmHg 71%
    19:00 +15°C° 0 mm 2 mps 747 mmHg 77%
    20:00 +15°C° 0 mm 2 mps 747 mmHg 78%
    21:00 +14°C° 0 mm 2 mps 747 mmHg 80%
    22:00 +13°C° 0 mm 3 mps 747 mmHg 81%
    23:00 +12°C° 0 mm 3 mps 747 mmHg 84%

    27 May, Monday

    Time Temperature Precipitation Wind Pressure Humidity
    00:00 +12°C° 0 mm 3 mps 747 mmHg 88%
    01:00 +11°C° 0 mm 3 mps 747 mmHg 91%
    02:00 +11°C° 0 mm 3 mps 747 mmHg 92%
    03:00 +11°C° 0 mm 4 mps 746 mmHg 92%
    04:00 +11°C° 0 mm 4 mps 746 mmHg 93%
    05:00 +12°C° 0 mm 5 mps 746 mmHg 89%
    06:00 +13°C° 0 mm 6 mps 745 mmHg 86%
    07:00 +15°C° 0 mm 6 mps 745 mmHg 82%
    08:00 +15°C° 0 mm 6 mps 745 mmHg 80%
    09:00 +16°C° 0 mm 7 mps 745 mmHg 78%
    10:00 +17°C° 0 mm 7 mps 745 mmHg 76%
    11:00 +17°C° 0.2 mm 7 mps 745 mmHg 76%
    12:00 +18°C° 0.2 mm 7 mps 745 mmHg 75%
    13:00 +18°C° 0.2 mm 8 mps 745 mmHg 75%
    14:00 +18°C° 0.2 mm 7 mps 745 mmHg 74%
    15:00 +18°C° 0.2 mm 7 mps 745 mmHg 73%
    16:00 +19°C° 0.2 mm 6 mps 745 mmHg 72%
    17:00 +17°C° 0 mm 6 mps 745 mmHg 75%
    18:00 +16°C° 0 mm 5 mps 746 mmHg 77%
    19:00 +15°C° 0 mm 4 mps 746 mmHg 80%
    20:00 +14°C° 0 mm 3 mps 747 mmHg 85%
    21:00 +14°C° 0 mm 2 mps 747 mmHg 90%
    22:00 +12°C° 0 mm 2 mps 748 mmHg 94%
    23:00 +10°C° 0 mm 2 mps 748 mmHg 94%

    28 May, Tuesday

    Time Temperature Precipitation Wind Pressure Humidity
    00:00 +11°C° 0 mm 1 mps 748 mmHg 94%
    01:00 +10°C° 0 mm 1 mps 748 mmHg 95%
    02:00 +10°C° 0 mm 1 mps 748 mmHg 95%
    03:00 +10°C° 0 mm 1 mps 748 mmHg 95%
    04:00 +9°C° 0 mm 1 mps 748 mmHg 95%
    05:00 +10°C° 0 mm 2 mps 748 mmHg 90%
    06:00 +13°C° 0 mm 2 mps 748 mmHg 85%
    07:00 +15°C° 0 mm 2 mps 748 mmHg 80%
    08:00 +16°C° 0 mm 2 mps 748 mmHg 73%
    09:00 +18°C° 0 mm 2 mps 748 mmHg 66%
    10:00 +20°C° 0 mm 2 mps 748 mmHg 59%
    11:00 +20°C° 0.1 mm 2 mps 748 mmHg 61%
    12:00 +20°C° 0.1 mm 2 mps 747 mmHg 63%
    13:00 +20°C° 0.1 mm 2 mps 747 mmHg 65%
    14:00 +20°C° 0.3 mm 2 mps 747 mmHg 69%
    15:00 +19°C° 0.3 mm 2 mps 747 mmHg 73%
    16:00 +19°C° 0.3 mm 2 mps 747 mmHg 78%
    17:00 +18°C° 0.6 mm 2 mps 747 mmHg 82%
    18:00 +17°C° 0.6 mm 3 mps 747 mmHg 87%
    19:00 +16°C° 0.6 mm 3 mps 747 mmHg 92%
    20:00 +14°C° 0.6 mm 3 mps 747 mmHg 92%
    21:00 +13°C° 0.6 mm 4 mps 747 mmHg 93%
    22:00 +13°C° 0.6 mm 4 mps 747 mmHg 94%
    23:00 +12°C° 1.3 mm 5 mps 747 mmHg 94%
    Show more